TimePDT,TemperatureF,Dew PointF,Humidity,Sea Level PressureIn,VisibilityMPH,Wind Direction,Wind SpeedMPH,Gust SpeedMPH,PrecipitationIn,Events,Conditions,WindDirDegrees,DateUTC
12:55 AM,62.1,46.9,58,29.89,10.0,Calm,Calm,-,N/A,,Clear,0,2013-09-24 07:55:00
1:55 AM,60.1,46.0,60,29.90,10.0,Calm,Calm,-,N/A,,Clear,0,2013-09-24 08:55:00
2:55 AM,60.1,46.0,60,29.89,10.0,Calm,Calm,-,N/A,,Clear,0,2013-09-24 09:55:00
3:55 AM,59.0,46.9,64,29.90,10.0,Calm,Calm,-,N/A,,Clear,0,2013-09-24 10:55:00
4:55 AM,57.9,45.0,62,29.90,10.0,Calm,Calm,-,N/A,,Clear,0,2013-09-24 11:55:00
5:55 AM,55.0,45.0,69,29.91,10.0,Calm,Calm,-,N/A,,Clear,0,2013-09-24 12:55:00
6:55 AM,55.0,44.1,67,29.92,10.0,Calm,Calm,-,N/A,,Clear,0,2013-09-24 13:55:00
7:55 AM,62.1,45.0,53,29.94,10.0,Calm,Calm,-,N/A,,Clear,0,2013-09-24 14:55:00
8:55 AM,71.1,42.1,35,29.95,10.0,Calm,Calm,-,N/A,,Clear,0,2013-09-24 15:55:00
9:55 AM,73.9,48.0,40,29.96,10.0,WSW,3.5,-,N/A,,Clear,240,2013-09-24 16:55:00
10:55 AM,79.0,48.0,34,29.95,10.0,SSW,6.9,-,N/A,,Clear,210,2013-09-24 17:55:00
11:55 AM,82.0,46.9,29,29.93,10.0,WSW,9.2,-,N/A,,Clear,240,2013-09-24 18:55:00
12:55 PM,81.0,48.0,31,29.92,10.0,SSW,10.4,-,N/A,,Clear,210,2013-09-24 19:55:00
1:55 PM,82.0,48.0,30,29.90,10.0,SW,10.4,-,N/A,,Clear,230,2013-09-24 20:55:00
2:55 PM,81.0,53.1,38,29.88,10.0,SW,11.5,-,N/A,,Clear,220,2013-09-24 21:55:00
3:55 PM,79.0,55.0,44,29.88,10.0,SW,10.4,16.1,N/A,,Clear,230,2013-09-24 22:55:00
4:55 PM,75.9,55.0,48,29.88,10.0,SSW,8.1,-,N/A,,Clear,210,2013-09-24 23:55:00
5:55 PM,73.0,55.0,53,29.86,10.0,WSW,5.8,-,N/A,,Clear,240,2013-09-25 00:55:00
6:55 PM,71.1,57.0,61,29.86,10.0,Calm,Calm,-,N/A,,Clear,0,2013-09-25 01:55:00
7:55 PM,64.9,57.0,75,29.86,10.0,WNW,5.8,-,N/A,,Clear,290,2013-09-25 02:55:00
8:55 PM,64.0,57.0,78,29.88,10.0,West,3.5,-,N/A,,Clear,280,2013-09-25 03:55:00
9:55 PM,63.0,57.9,84,29.88,9.0,Calm,Calm,-,N/A,,Clear,0,2013-09-25 04:55:00
10:55 PM,63.0,57.0,81,29.87,10.0,Calm,Calm,-,N/A,,Clear,0,2013-09-25 05:55:00
11:55 PM,60.1,55.0,83,29.86,9.0,Calm,Calm,-,N/A,,Clear,0,2013-09-25 06:55:00